Vorticity
5 5 5 5 5 6 5 5 5 6 6 6 6 6 6 6 6 6 6 6 6 6 6 6 6 5 5 5 4 4 3 2 1 0 -1 -1 -1 -1 0 2 4 5 6 6 5 4 4 4 6 7 9 10 10 10 10 10 9 9 8 8 8 9 9 9 9 10 14 19 22 23 21 20 15 7 -1 -0 0 2 4 6 7 8 8 10 11 12
5 5 5 5 5 5 6 5 5 6 6 6 6 6 6 6 6 6 6 6 6 6 6 6 6 6 6 5 5 5 4 4 4 3 2 1 -0 -2 -2 -2 -1 1 3 4 5 5 4 4 4 4 6 8 10 11 11 11 11 11 10 10 9 9 9 9 9 9 10 14 18 21 20 20 18 14 8 4 2 2 4 8 10 9 8 9 10 11
5 5 5 5 5 5 6 6 6 6 6 6 7 7 7 7 7 7 7 7 7 7 7 7 7 6 6 6 6 5 5 5 5 5 4 4 3 1 -1 -2 -3 -3 -2 0 2 4 4 4 4 4 4 5 7 10 11 12 13 13 12 11 10 9 9 9 9 9 8 11 15 19 21 21 20 18 14 9 5 2 2 6 10 11 11 9 9 10
5 5 6 5 5 5 6 6 6 6 6 7 7 7 7 7 7 7 7 8 8 7 7 7 7 7 7 6 6 6 6 5 5 5 5 4 4 3 2 0 -2 -4 -5 -4 -1 1 3 4 5 5 5 5 6 8 10 12 14 14 15 14 12 11 10 9 9 9 8 9 12 15 19 21 22 20 18 13 8 3 -1 1 5 10 13 13 12 11
5 6 6 6 6 6 6 6 6 7 7 7 7 7 7 8 8 8 8 8 8 8 8 8 7 7 7 7 7 6 6 6 5 5 5 4 4 4 3 2 1 -1 -4 -5 -4 -2 1 4 5 6 7 7 7 8 9 11 14 16 17 16 15 13 11 10 9 8 8 8 10 12 16 20 21 21 20 17 12 6 -1 -2 1 5 10 13 15 15
6 6 6 6 6 6 6 7 7 7 7 7 7 7 8 8 8 8 8 8 8 8 8 8 8 8 7 7 7 7 6 6 6 5 5 4 4 3 3 2 2 1 -0 -2 -3 -3 -1 3 6 8 9 9 9 9 10 11 13 16 18 18 17 15 13 11 9 8 8 8 8 10 14 17 20 21 20 18 15 10 3 -2 -2 1 6 9 13 16
6 6 6 7 7 7 7 7 7 7 8 8 8 8 8 8 8 8 8 8 8 8 8 8 8 8 7 7 7 7 6 6 5 5 4 4 3 3 3 3 3 3 3 2 1 0 1 3 7 10 12 12 12 12 12 12 14 16 19 20 19 17 15 12 10 9 8 8 8 9 11 15 18 20 20 19 17 14 8 2 -1 -1 3 5 9 12
7 7 7 7 7 8 8 7 7 7 8 8 8 8 8 8 8 8 8 8 8 8 8 8 8 7 7 7 7 6 6 6 5 5 4 4 4 4 4 4 5 5 6 6 6 6 6 6 9 12 15 16 16 15 14 14 15 16 19 20 20 19 17 14 11 9 8 8 8 8 10 13 16 19 20 19 18 16 13 8 3 -0 0 2 3 4
7 8 8 8 8 8 8 8 8 8 8 8 8 9 9 9 9 9 8 8 8 8 8 9 8 8 7 6 6 6 6 6 6 6 6 6 6 6 7 8 8 9 10 11 12 12 12 12 12 15 18 20 21 20 18 16 16 17 18 20 21 20 18 16 13 10 9 8 8 8 9 11 15 18 20 19 18 16 14 11 6 3 1 1 -0 -1
8 8 8 8 8 8 8 8 8 8 8 8 8 9 9 9 10 9 9 8 8 8 8 8 8 9 9 7 7 6 7 7 7 8 8 9 10 11 11 12 13 14 15 16 16 17 18 17 18 18 21 24 25 24 22 20 18 18 18 20 20 20 19 17 14 11 9 8 8 8 8 10 13 16 19 19 18 15 12 10 7 5 2 2 1 2
8 8 8 8 8 8 8 8 8 8 8 8 8 8 8 8 9 10 10 9 9 8 8 8 8 9 10 9 9 8 8 9 10 11 11 12 13 14 16 17 18 19 20 21 22 22 23 23 23 24 24 27 29 30 28 24 21 19 18 19 19 19 19 17 15 13 10 9 8 8 8 9 12 15 18 20 18 15 11 8 6 5 3 2 2 3
8 8 8 8 8 8 8 8 8 8 8 8 9 9 9 8 8 9 10 10 10 9 9 9 9 9 9 10 11 11 11 12 13 14 15 16 17 19 21 23 25 26 28 29 29 30 30 31 31 30 30 31 33 34 34 29 24 20 18 17 18 18 18 17 15 14 12 10 10 9 9 9 11 14 17 19 19 16 12 8 6 5 4 3 3 4
9 8 8 8 8 8 8 8 8 8 8 8 9 9 9 9 9 9 9 10 10 10 10 11 11 10 9 10 11 12 13 15 16 17 19 22 24 27 30 33 36 38 40 41 41 41 40 39 39 37 36 36 37 38 38 33 27 22 18 16 16 16 16 16 15 14 12 11 10 10 10 10 11 13 16 19 19 17 13 10 7 6 4 3 4 5
9 9 9 8 8 8 8 8 8 9 9 8 9 9 10 10 10 10 10 11 11 11 11 12 12 12 11 11 12 14 16 18 21 25 29 32 35 38 41 45 47 49 51 52 51 50 48 47 45 43 41 40 40 41 41 37 30 24 18 16 15 14 14 14 14 14 13 12 11 11 10 10 10 12 15 18 19 18 16 12 10 7 5 3 3 4
8 8 8 8 8 8 8 8 9 9 9 9 10 10 11 11 11 11 11 12 12 12 12 12 12 12 12 13 14 17 21 25 29 33 38 42 46 48 51 53 53 53 53 54 54 53 52 51 50 47 44 43 42 42 43 38 32 26 20 17 15 14 13 14 14 14 14 13 12 12 11 11 11 12 14 17 19 19 17 14 12 10 8 5 4 4
8 8 8 8 8 8 8 9 9 10 10 11 11 11 12 12 12 12 11 12 12 12 12 12 13 15 15 16 20 24 29 34 38 41 45 49 51 51 51 50 48 46 44 45 47 49 49 50 51 50 47 45 43 43 43 39 33 27 22 20 17 15 14 13 14 14 14 13 13 12 12 11 11 11 13 16 19 20 18 14 12 11 10 8 6 4
8 9 9 9 9 9 9 10 10 11 11 12 12 11 11 12 12 12 12 12 12 12 12 13 15 17 20 23 29 35 37 40 43 45 48 49 46 43 39 37 36 34 32 33 36 40 43 47 50 51 50 46 44 43 43 39 34 28 23 20 18 19 22 14 13 14 14 14 13 13 12 12 11 11 13 15 18 20 19 14 11 10 11 9 7 5
9 9 9 10 10 10 10 11 11 11 12 12 12 12 12 11 11 12 12 12 13 14 15 18 20 21 21 27 34 39 43 44 44 44 44 41 36 30 25 24 25 26 26 27 29 32 37 43 48 51 51 48 45 43 42 39 34 29 25 21 16 15 26 30 25 18 16 15 14 13 13 12 11 12 12 15 17 19 20 15 11 8 10 9 7 5
10 10 10 11 11 11 11 11 11 12 12 12 12 12 12 12 12 12 13 15 16 18 20 22 26 30 34 34 35 37 43 42 39 35 32 28 24 20 18 18 20 21 23 24 25 28 32 39 46 51 53 50 46 43 41 38 34 30 27 24 19 13 5 27 36 35 22 21 18 15 13 12 12 12 12 14 16 19 20 17 11 8 9 8 6 4
10 11 11 11 12 12 12 11 11 11 12 12 12 12 12 13 13 14 16 19 22 25 27 30 32 34 36 34 33 35 38 35 30 24 20 17 16 16 17 18 20 21 22 23 24 26 30 37 45 51 55 51 46 41 39 37 33 30 28 26 21 14 7 14 22 26 24 26 20 14 15 13 12 12 12 14 16 18 19 18 14 10 8 8 5 3
11 11 11 11 11 12 12 12 11 11 11 12 12 12 14 14 16 18 21 24 27 30 34 37 34 30 26 27 29 31 32 27 21 15 11 12 14 17 19 21 23 24 25 24 24 25 28 35 44 52 56 51 45 40 37 35 32 30 28 27 21 15 11 19 21 23 27 31 21 12 16 14 13 12 13 14 15 17 19 18 15 11 9 8 6 3
12 11 11 11 11 11 11 11 11 11 11 12 13 14 16 17 19 22 25 30 33 36 37 33 27 22 23 26 26 26 25 20 15 10 9 12 15 19 22 24 25 26 26 26 25 25 26 33 43 53 58 52 44 37 34 33 32 30 29 27 26 24 19 17 16 19 26 31 25 16 14 14 14 13 13 14 15 16 18 18 16 13 9 7 5 3
11 11 11 11 10 11 11 11 11 11 11 12 14 16 17 19 21 24 28 34 36 36 32 25 21 20 23 22 20 17 16 13 10 9 11 14 17 20 22 24 26 27 27 27 26 26 26 33 43 53 59 52 43 35 32 31 31 29 25 23 26 29 26 21 16 13 14 23 23 18 14 13 13 14 13 14 15 16 18 19 17 15 12 8 6 4
10 10 10 10 10 10 10 11 11 11 12 14 16 18 20 24 27 30 33 37 37 32 24 18 15 16 18 17 16 14 13 9 7 8 10 13 17 20 23 25 26 28 29 28 27 26 26 33 43 53 60 52 42 33 29 30 30 29 24 17 18 22 22 21 19 19 22 26 28 26 18 14 13 13 14 14 15 16 18 19 18 17 14 11 7 5
10 10 10 10 10 10 10 11 11 12 13 15 18 21 24 28 32 35 39 41 36 27 17 14 14 14 15 17 16 14 11 7 5 6 8 12 16 21 24 26 27 28 30 29 27 26 26 33 44 54 61 51 40 31 27 28 30 30 28 20 18 19 19 18 18 18 18 22 26 28 23 18 15 14 13 14 15 17 18 18 18 17 16 13 10 7
10 10 10 10 10 10 11 11 12 13 15 18 21 24 26 28 31 36 42 39 29 19 14 14 15 16 17 17 14 10 7 5 4 5 7 11 16 20 24 26 27 28 29 29 27 26 27 34 45 55 60 50 38 29 26 27 29 30 29 25 22 20 19 18 16 14 13 15 19 23 25 22 18 15 14 14 15 17 18 16 16 16 16 14 11 8
10 10 10 10 10 10 11 11 12 14 17 22 26 29 30 31 34 37 39 28 20 15 14 14 16 17 17 15 11 7 4 3 4 6 9 13 16 20 25 26 27 28 28 28 27 27 28 35 46 56 60 48 36 27 24 26 28 29 29 26 23 20 18 18 16 14 14 13 14 17 24 25 22 17 14 15 16 17 17 14 13 14 15 14 12 9
9 10 10 10 10 10 11 11 13 15 19 24 29 33 37 36 37 35 28 18 14 14 14 13 14 15 14 12 8 5 4 5 7 11 14 16 18 20 25 27 28 28 28 28 27 28 30 38 48 57 59 46 34 25 23 26 28 29 28 25 22 19 18 17 17 17 17 12 9 12 21 25 23 18 15 15 16 17 17 14 12 12 14 14 12 10
9 9 10 10 10 10 11 12 14 17 21 26 31 37 42 40 36 29 18 14 13 13 14 12 11 10 9 8 7 7 9 12 15 18 19 17 18 21 26 28 28 28 28 28 27 29 32 41 51 57 57 43 31 24 22 25 28 29 28 25 22 19 17 17 18 18 19 13 9 10 18 23 22 19 16 16 17 18 17 15 14 13 14 13 12 10
9 10 10 10 10 11 11 12 15 18 23 29 35 41 45 39 30 21 15 12 11 12 12 10 8 6 6 8 10 13 17 20 22 23 21 18 18 21 26 29 29 29 28 27 27 29 34 45 54 58 54 40 29 22 22 25 28 28 28 25 22 19 17 15 15 18 21 16 11 11 16 21 22 21 18 17 17 18 19 18 17 15 14 14 12 9
9 9 10 10 10 11 12 13 16 20 25 32 39 45 45 34 22 14 11 9 8 9 10 8 7 7 8 11 14 18 22 25 26 24 20 17 18 22 27 28 29 28 28 27 27 30 36 48 57 58 50 36 26 21 22 25 27 28 27 25 22 19 17 12 12 14 19 15 11 9 13 20 23 23 20 18 18 19 20 21 20 18 16 15 12 10
9 10 10 10 10 11 12 15 18 22 28 37 43 46 41 27 17 10 8 7 6 6 8 8 8 9 11 15 18 21 24 25 25 23 19 16 18 22 27 28 28 28 27 27 28 31 37 51 58 57 46 32 24 21 22 25 27 28 27 25 22 19 17 14 13 14 16 13 8 6 9 17 21 23 20 18 18 19 21 22 21 18 16 15 13 9
10 10 10 10 11 12 14 16 21 26 33 41 45 43 33 20 12 8 7 6 5 4 6 7 9 11 14 18 21 23 25 25 24 22 17 16 19 23 28 29 28 27 26 27 29 33 38 52 59 56 41 29 22 20 22 25 27 27 26 24 22 19 18 16 16 16 16 12 8 6 8 14 19 21 19 18 18 20 22 23 20 17 15 15 12 9
10 10 11 11 12 13 15 19 25 31 38 43 42 36 24 15 10 8 7 6 4 3 4 7 10 13 17 20 22 24 25 25 24 20 16 17 21 25 29 29 28 27 26 27 30 34 41 53 57 52 37 26 21 20 23 25 27 27 26 24 21 19 18 17 17 17 15 11 8 7 9 14 18 19 18 18 19 21 23 22 19 15 14 14 11 7
10 10 11 12 12 14 17 23 29 35 41 42 37 28 18 12 10 9 8 6 4 4 4 7 11 16 20 23 24 25 25 25 23 20 17 19 23 26 29 30 29 27 27 28 31 36 44 53 55 48 33 23 20 20 23 26 26 26 25 22 20 18 17 17 17 16 14 10 8 8 10 14 18 20 19 18 20 22 24 21 17 13 13 12 9 5
10 11 12 13 14 17 21 26 32 37 41 38 31 22 13 11 10 9 8 6 5 5 6 9 13 18 22 24 25 25 25 24 21 19 19 21 24 26 29 29 28 28 28 29 32 38 47 54 53 45 29 21 19 21 24 26 26 25 23 22 19 18 16 17 16 15 16 9 7 8 10 14 17 20 19 20 21 23 24 20 15 12 12 11 8 4
11 12 13 14 17 20 24 29 35 38 39 34 26 18 11 10 10 9 7 6 5 6 8 11 16 20 24 25 26 25 24 22 20 19 20 23 25 27 28 28 28 28 29 30 34 40 48 54 50 41 26 20 19 22 25 26 25 24 22 21 20 18 17 18 16 14 16 16 13 8 2 12 16 18 17 20 22 24 24 20 15 11 10 11 8 4
12 13 15 17 20 23 27 32 36 37 36 29 22 15 11 11 10 9 7 6 6 7 10 14 19 23 26 26 25 24 22 20 19 20 22 23 25 26 27 27 28 29 30 32 36 42 49 52 47 37 24 19 19 22 25 26 25 23 21 20 19 18 18 19 18 16 15 14 13 11 6 12 15 16 16 20 23 23 24 21 15 10 9 10 8 5
14 15 16 19 22 25 29 33 35 35 32 24 17 12 10 11 10 8 6 6 7 9 13 18 22 25 27 26 24 22 20 19 20 21 22 24 25 26 27 27 27 28 30 33 38 44 50 51 45 34 22 19 19 22 25 25 24 22 20 19 18 17 18 19 19 18 16 12 10 10 10 12 13 14 16 22 23 23 24 22 18 14 11 11 8 4
15 16 18 21 24 27 31 34 35 33 27 19 13 10 10 11 11 10 7 7 9 12 17 21 25 26 26 25 23 21 19 19 20 22 23 24 25 26 26 27 28 28 30 34 40 47 52 49 42 31 21 18 20 23 25 24 23 21 20 19 19 19 20 21 20 18 15 12 10 10 10 11 13 14 17 23 24 23 23 21 18 15 12 13 9 2
16 17 20 22 26 30 34 35 33 29 21 15 11 10 12 13 13 11 9 9 11 15 20 23 25 25 24 23 21 19 18 19 21 23 24 25 25 26 27 28 28 29 31 36 42 49 53 48 39 29 20 18 20 22 24 23 22 21 20 18 18 20 23 22 21 19 15 11 10 9 9 11 13 16 21 24 25 24 22 20 17 14 13 12 8 1
17 18 20 22 26 31 35 35 30 24 15 11 10 11 13 14 13 12 11 12 14 18 22 24 24 23 22 20 19 18 19 21 23 24 25 26 26 27 28 28 29 30 32 38 45 51 54 47 37 27 19 19 21 23 23 22 21 20 19 18 19 21 21 20 19 17 14 12 9 8 7 10 15 21 27 28 27 25 23 18 14 12 15 12 7 -0
18 20 21 25 29 32 34 33 27 19 12 10 10 11 14 13 12 11 12 14 18 21 24 24 24 22 19 17 16 17 20 23 24 25 26 27 27 28 29 29 30 31 34 41 48 53 54 46 36 26 19 20 22 23 23 22 21 20 19 19 21 23 23 22 20 17 14 12 9 8 8 12 20 27 32 31 29 26 23 17 12 10 13 13 9 3
18 20 23 27 31 33 34 29 22 15 11 10 11 13 14 12 11 12 14 17 20 23 25 24 23 20 18 15 15 16 19 23 25 27 27 28 29 29 30 30 31 33 37 44 51 54 52 43 34 25 20 21 23 24 22 21 20 20 20 20 22 23 24 24 22 19 15 11 8 8 9 14 20 28 33 33 31 27 19 13 13 16 18 12 7 2
19 22 26 29 32 33 31 24 18 13 9 10 11 13 14 13 13 14 17 20 23 24 25 23 21 18 16 15 15 17 21 24 26 27 28 29 30 31 31 32 33 35 40 48 54 56 51 40 30 23 20 22 23 24 22 21 20 21 21 22 22 22 22 21 19 16 13 10 7 6 7 13 20 27 33 36 34 29 22 10 10 16 23 18 11 2
21 24 27 30 32 31 26 20 15 12 10 10 12 13 14 14 15 17 20 23 24 25 24 22 19 16 14 13 15 19 24 26 27 27 27 28 30 32 33 34 35 37 42 50 55 56 51 38 29 22 21 23 24 23 21 21 21 22 22 23 24 23 21 19 16 13 9 5 3 4 10 17 22 26 32 38 37 30 20 8 6 12 28 24 18 8
23 26 28 30 30 28 22 16 13 11 11 12 13 13 14 15 17 20 23 24 25 24 23 21 18 16 13 13 16 21 25 28 29 29 29 29 30 32 33 35 37 40 45 51 55 54 47 36 28 23 22 24 25 24 21 21 21 22 23 25 25 23 21 18 13 8 3 -1 2 8 17 18 19 21 28 37 37 30 18 9 6 10 25 25 21 15
24 27 28 29 28 24 18 14 11 11 12 14 14 14 14 16 20 23 25 25 24 23 21 19 16 14 11 12 16 20 25 28 29 30 30 31 31 33 34 35 38 42 48 53 54 51 43 33 27 24 23 25 25 24 22 22 22 23 24 25 25 23 20 15 9 2 -4 -0 8 15 18 16 15 18 25 35 33 26 16 11 12 17 25 24 22 18
26 27 27 27 25 20 15 12 11 12 14 15 15 15 16 18 21 24 26 25 24 22 20 17 14 11 8 8 12 17 23 27 29 31 31 32 33 34 35 37 40 44 49 52 52 48 39 32 27 25 24 25 25 24 23 22 23 23 24 25 24 21 18 10 0 -7 -7 3 12 17 17 18 19 23 28 35 32 24 13 11 12 16 22 22 21 20
27 27 26 24 21 17 13 12 12 13 15 16 16 17 19 21 23 25 26 25 23 21 19 16 13 9 6 3 6 11 19 25 29 32 33 33 34 35 36 38 41 45 49 50 48 43 36 31 27 25 24 23 23 24 24 24 24 24 24 24 22 20 14 1 -9 -13 -7 4 11 15 17 23 28 31 34 37 34 25 11 5 7 13 20 21 21 19
26 26 24 21 17 14 12 12 13 15 16 16 17 18 22 24 26 27 26 24 22 20 17 15 12 9 5 1 1 6 15 23 29 32 34 35 35 37 38 40 43 46 48 47 44 39 34 30 28 26 25 23 22 22 24 25 26 25 24 24 22 16 6 -9 -16 -14 -4 4 8 11 14 21 28 34 38 38 36 31 19 5 3 9 18 20 20 19
Height
5631 5630 5628 5626 5625 5624 5622 5621 5620 5618 5617 5616 5615 5613 5611 5610 5609 5608 5607 5605 5604 5603 5602 5602 5602 5601 5601 5600 5600 5600 5599 5599 5598 5598 5597 5597 5596 5596 5596 5595 5595 5594 5593 5592 5592 5592 5593 5594 5596 5597 5599 5600 5601 5602 5603 5604 5605 5607 5609 5610 5612 5614 5616 5619 5621 5624 5625 5627 5630 5632 5635 5637 5639 5641 5644 5648 5651 5654 5655 5657 5658 5658 5660 5663 5666 5669
5626 5625 5623 5621 5620 5618 5617 5616 5614 5612 5610 5609 5608 5607 5605 5604 5603 5601 5600 5599 5597 5596 5595 5595 5594 5594 5593 5592 5592 5591 5591 5590 5589 5589 5589 5588 5588 5588 5588 5588 5587 5587 5586 5585 5585 5584 5585 5585 5586 5588 5590 5591 5593 5594 5595 5596 5597 5599 5600 5602 5604 5606 5608 5610 5613 5616 5618 5620 5622 5624 5627 5630 5632 5635 5637 5641 5645 5649 5650 5653 5655 5656 5656 5658 5661 5663
5622 5620 5619 5617 5615 5613 5611 5610 5608 5606 5604 5602 5601 5600 5599 5597 5596 5595 5594 5592 5590 5589 5588 5587 5586 5585 5585 5585 5584 5583 5582 5581 5580 5580 5580 5579 5579 5579 5579 5579 5579 5579 5578 5578 5577 5576 5576 5576 5577 5578 5580 5581 5583 5585 5587 5588 5589 5590 5592 5594 5595 5598 5600 5602 5605 5608 5610 5613 5615 5617 5619 5622 5625 5627 5631 5634 5639 5644 5645 5646 5650 5653 5655 5655 5656 5658
5617 5615 5614 5612 5610 5608 5606 5604 5602 5600 5598 5596 5594 5593 5592 5590 5589 5587 5586 5585 5583 5582 5581 5580 5579 5578 5577 5576 5576 5575 5574 5573 5572 5571 5570 5570 5569 5569 5569 5569 5570 5570 5569 5569 5569 5568 5567 5567 5567 5568 5569 5571 5573 5575 5577 5579 5580 5582 5583 5585 5587 5589 5591 5594 5596 5599 5602 5605 5607 5610 5612 5614 5617 5620 5624 5627 5631 5636 5640 5641 5643 5647 5652 5654 5653 5653
5612 5609 5608 5606 5605 5602 5600 5598 5595 5593 5591 5589 5587 5586 5584 5583 5581 5580 5579 5577 5576 5574 5573 5572 5571 5570 5568 5567 5567 5566 5565 5564 5563 5562 5561 5560 5560 5559 5559 5559 5559 5559 5559 5559 5559 5559 5558 5558 5557 5558 5559 5560 5562 5564 5566 5569 5571 5573 5574 5576 5578 5580 5582 5585 5588 5590 5594 5597 5600 5602 5605 5607 5610 5613 5616 5620 5623 5628 5632 5634 5636 5640 5645 5650 5652 5651
5606 5604 5602 5600 5598 5596 5594 5592 5589 5586 5583 5582 5580 5579 5577 5575 5573 5572 5570 5569 5568 5566 5565 5564 5562 5561 5560 5558 5557 5556 5556 5555 5554 5553 5552 5551 5550 5550 5549 5548 5547 5547 5547 5548 5548 5548 5548 5548 5548 5547 5548 5549 5551 5553 5555 5558 5560 5563 5565 5567 5569 5571 5573 5576 5579 5582 5585 5588 5591 5595 5597 5600 5603 5605 5609 5612 5616 5620 5624 5627 5629 5632 5637 5643 5647 5650
5601 5599 5596 5594 5591 5590 5588 5585 5582 5579 5576 5574 5572 5571 5570 5567 5565 5563 5562 5560 5559 5557 5556 5555 5554 5552 5550 5549 5547 5546 5545 5544 5544 5543 5541 5540 5540 5539 5538 5537 5536 5535 5535 5535 5536 5536 5537 5537 5537 5537 5537 5538 5539 5541 5544 5546 5549 5552 5555 5557 5560 5562 5564 5567 5570 5573 5576 5580 5583 5586 5590 5592 5595 5598 5601 5605 5609 5613 5617 5620 5623 5626 5630 5635 5639 5644
5594 5592 5590 5588 5585 5583 5581 5578 5575 5571 5568 5565 5564 5563 5561 5560 5557 5555 5553 5551 5550 5548 5546 5545 5544 5543 5541 5540 5538 5536 5535 5533 5532 5531 5530 5529 5528 5527 5526 5525 5524 5523 5523 5522 5522 5523 5524 5525 5525 5525 5526 5526 5527 5529 5531 5534 5537 5540 5544 5547 5550 5552 5555 5557 5560 5564 5567 5571 5575 5578 5582 5585 5588 5591 5594 5598 5603 5607 5612 5615 5618 5620 5623 5627 5631 5635
5587 5585 5583 5581 5579 5576 5573 5571 5568 5565 5560 5558 5555 5554 5552 5550 5549 5547 5545 5544 5541 5539 5537 5535 5534 5533 5532 5530 5528 5525 5523 5521 5520 5519 5518 5516 5515 5514 5513 5512 5511 5510 5509 5509 5509 5509 5510 5510 5512 5513 5514 5515 5516 5517 5519 5522 5525 5528 5532 5535 5539 5542 5545 5548 5551 5554 5558 5562 5566 5570 5573 5577 5580 5583 5587 5591 5595 5601 5606 5610 5612 5614 5617 5621 5625 5628
5581 5579 5576 5574 5572 5569 5566 5563 5560 5557 5554 5550 5547 5545 5543 5541 5539 5537 5536 5535 5533 5530 5527 5525 5523 5522 5521 5520 5517 5515 5512 5510 5508 5506 5505 5503 5502 5500 5499 5497 5496 5495 5495 5494 5494 5494 5494 5495 5497 5499 5500 5502 5504 5505 5507 5510 5512 5516 5520 5524 5528 5531 5535 5538 5541 5545 5549 5553 5557 5561 5565 5569 5572 5576 5580 5584 5588 5593 5598 5603 5606 5608 5611 5615 5619 5622
5575 5572 5570 5568 5565 5563 5560 5556 5553 5550 5546 5543 5540 5537 5534 5531 5529 5527 5525 5525 5524 5522 5519 5515 5513 5511 5510 5508 5506 5504 5501 5498 5496 5494 5491 5490 5488 5486 5484 5482 5481 5480 5479 5479 5478 5478 5479 5480 5481 5484 5486 5488 5490 5493 5495 5497 5500 5503 5507 5511 5516 5520 5525 5528 5532 5535 5540 5544 5548 5552 5556 5560 5564 5568 5572 5576 5580 5585 5590 5596 5600 5602 5605 5610 5614 5618
5568 5566 5564 5561 5558 5555 5552 5549 5545 5542 5539 5536 5532 5529 5525 5523 5520 5517 5515 5513 5512 5511 5509 5506 5503 5501 5499 5497 5494 5491 5488 5486 5483 5480 5477 5475 5473 5471 5468 5466 5465 5463 5462 5462 5462 5462 5463 5464 5465 5467 5470 5474 5477 5480 5482 5485 5488 5491 5495 5499 5504 5509 5513 5518 5522 5526 5530 5535 5539 5544 5548 5552 5556 5560 5564 5568 5573 5577 5582 5587 5592 5595 5600 5605 5609 5612
5561 5559 5557 5554 5551 5548 5545 5541 5537 5534 5531 5527 5523 5520 5516 5514 5511 5508 5505 5503 5501 5499 5497 5495 5493 5491 5489 5486 5483 5479 5475 5472 5468 5465 5462 5460 5457 5455 5452 5450 5448 5446 5445 5445 5445 5446 5447 5448 5449 5451 5454 5458 5462 5466 5470 5473 5476 5479 5483 5487 5492 5497 5502 5507 5512 5517 5521 5526 5530 5535 5540 5544 5548 5552 5556 5561 5565 5570 5574 5579 5584 5588 5593 5598 5602 5605
5555 5552 5550 5547 5544 5541 5537 5533 5529 5526 5522 5519 5515 5511 5508 5505 5502 5498 5495 5492 5490 5487 5485 5483 5481 5480 5478 5475 5471 5467 5462 5457 5453 5450 5447 5445 5442 5439 5436 5434 5432 5430 5429 5429 5429 5430 5431 5432 5433 5435 5438 5442 5447 5452 5456 5460 5464 5468 5472 5476 5480 5485 5490 5496 5502 5507 5512 5517 5521 5526 5531 5536 5540 5545 5549 5553 5558 5562 5567 5572 5577 5582 5587 5591 5595 5599
5548 5545 5542 5539 5536 5533 5529 5525 5521 5517 5514 5510 5506 5503 5499 5496 5492 5489 5485 5481 5478 5475 5473 5470 5468 5467 5466 5464 5460 5454 5448 5442 5438 5435 5432 5430 5428 5425 5422 5420 5417 5416 5415 5415 5415 5415 5416 5417 5419 5420 5423 5428 5433 5438 5443 5448 5452 5455 5460 5464 5469 5474 5479 5485 5491 5497 5502 5507 5512 5517 5522 5527 5532 5537 5541 5546 5550 5555 5560 5565 5572 5577 5581 5585 5589 5593
5540 5537 5534 5531 5528 5525 5521 5517 5513 5509 5505 5501 5497 5494 5490 5486 5483 5478 5474 5470 5467 5463 5460 5457 5455 5453 5453 5451 5448 5442 5435 5428 5423 5420 5418 5417 5415 5413 5410 5408 5405 5403 5403 5403 5402 5402 5402 5404 5405 5407 5410 5415 5420 5425 5430 5435 5440 5444 5448 5453 5458 5462 5467 5474 5480 5486 5493 5498 5504 5509 5514 5519 5524 5529 5533 5538 5543 5548 5553 5559 5565 5570 5575 5579 5584 5588
5533 5529 5525 5522 5519 5516 5513 5509 5505 5500 5496 5492 5488 5485 5481 5477 5473 5468 5464 5459 5455 5451 5448 5444 5441 5439 5437 5437 5435 5430 5423 5416 5410 5407 5405 5405 5405 5403 5400 5398 5395 5392 5392 5392 5392 5391 5391 5392 5393 5395 5398 5402 5407 5413 5419 5424 5428 5432 5437 5442 5446 5451 5457 5463 5469 5476 5483 5489 5495 5500 5505 5510 5516 5521 5525 5530 5535 5540 5546 5551 5557 5563 5568 5573 5578 5583
5525 5521 5517 5514 5510 5507 5505 5501 5496 5491 5486 5482 5479 5475 5472 5468 5463 5458 5453 5449 5444 5440 5435 5431 5428 5425 5422 5421 5420 5418 5413 5406 5400 5396 5395 5395 5395 5394 5392 5389 5385 5383 5382 5383 5383 5382 5381 5382 5382 5384 5387 5390 5395 5401 5407 5412 5417 5421 5426 5430 5436 5442 5448 5453 5459 5466 5473 5479 5485 5491 5496 5502 5507 5513 5518 5523 5528 5533 5539 5544 5550 5556 5561 5566 5571 5577
5517 5513 5509 5505 5501 5498 5496 5493 5488 5482 5477 5472 5469 5465 5461 5458 5453 5448 5443 5438 5433 5428 5424 5419 5415 5412 5410 5407 5406 5405 5403 5397 5391 5387 5385 5385 5386 5386 5385 5382 5378 5374 5373 5374 5374 5373 5373 5372 5373 5374 5377 5380 5385 5391 5397 5402 5407 5412 5416 5421 5426 5432 5438 5444 5451 5458 5465 5470 5476 5482 5488 5494 5499 5505 5510 5515 5520 5525 5531 5536 5542 5548 5553 5558 5564 5570
5508 5505 5501 5497 5492 5489 5486 5484 5479 5474 5468 5463 5459 5455 5451 5447 5443 5438 5433 5428 5423 5417 5413 5408 5404 5401 5399 5397 5396 5396 5394 5389 5384 5379 5377 5377 5377 5378 5378 5375 5370 5366 5365 5365 5365 5365 5364 5363 5364 5365 5368 5371 5376 5381 5387 5392 5397 5403 5408 5413 5418 5423 5427 5434 5442 5450 5458 5464 5469 5474 5480 5485 5491 5497 5502 5507 5513 5518 5524 5529 5535 5540 5546 5551 5557 5564
5500 5496 5493 5489 5484 5480 5477 5474 5470 5465 5460 5454 5449 5444 5440 5436 5432 5427 5423 5418 5413 5408 5403 5399 5395 5392 5390 5389 5388 5388 5387 5382 5377 5372 5370 5369 5369 5370 5371 5368 5363 5359 5356 5356 5357 5357 5356 5355 5355 5357 5360 5363 5367 5372 5378 5383 5388 5394 5399 5404 5410 5415 5420 5426 5432 5439 5446 5453 5460 5466 5472 5478 5484 5489 5495 5500 5505 5511 5516 5522 5528 5534 5540 5546 5552 5558
5492 5489 5485 5481 5477 5472 5469 5465 5461 5457 5451 5445 5440 5435 5430 5425 5421 5417 5413 5409 5404 5399 5395 5390 5387 5384 5383 5381 5381 5380 5380 5376 5371 5366 5363 5360 5360 5362 5364 5360 5355 5350 5348 5348 5349 5349 5348 5347 5347 5349 5351 5355 5359 5364 5370 5374 5380 5385 5390 5396 5401 5407 5412 5419 5425 5430 5436 5444 5451 5458 5464 5470 5476 5482 5488 5493 5499 5504 5510 5515 5521 5527 5533 5540 5546 5551
5484 5481 5477 5473 5469 5465 5460 5457 5453 5448 5442 5437 5431 5426 5421 5416 5412 5408 5404 5400 5395 5391 5387 5383 5380 5378 5377 5376 5374 5373 5372 5370 5365 5360 5357 5354 5353 5354 5356 5352 5347 5342 5340 5341 5341 5341 5340 5339 5339 5341 5344 5347 5352 5356 5361 5367 5372 5377 5383 5388 5393 5399 5405 5411 5417 5423 5430 5436 5443 5450 5456 5462 5469 5475 5480 5486 5492 5497 5503 5509 5515 5521 5527 5533 5539 5545
5476 5473 5470 5466 5462 5457 5453 5449 5444 5440 5434 5429 5423 5418 5412 5408 5403 5400 5396 5392 5388 5384 5380 5376 5374 5372 5372 5371 5369 5367 5365 5363 5359 5354 5350 5347 5346 5347 5347 5344 5339 5335 5333 5334 5334 5333 5332 5331 5332 5334 5337 5340 5345 5349 5354 5359 5365 5370 5375 5381 5386 5392 5397 5403 5410 5416 5424 5430 5436 5443 5449 5455 5461 5467 5473 5479 5485 5491 5497 5503 5509 5515 5521 5527 5533 5538
5470 5466 5462 5459 5455 5450 5445 5441 5436 5431 5426 5420 5415 5410 5405 5400 5396 5392 5389 5386 5382 5378 5373 5370 5368 5367 5366 5365 5363 5360 5360 5357 5353 5348 5343 5340 5339 5339 5340 5337 5332 5328 5325 5326 5327 5326 5324 5324 5325 5327 5330 5333 5338 5342 5347 5352 5358 5363 5368 5374 5379 5385 5390 5396 5403 5410 5417 5423 5429 5436 5442 5448 5454 5460 5467 5473 5479 5485 5491 5497 5504 5510 5515 5521 5527 5533
5463 5460 5455 5451 5447 5443 5439 5434 5429 5424 5419 5413 5407 5402 5397 5392 5389 5385 5382 5380 5376 5372 5367 5364 5362 5360 5360 5358 5356 5354 5353 5350 5346 5342 5337 5333 5330 5330 5332 5330 5326 5321 5318 5319 5319 5319 5317 5317 5318 5320 5323 5327 5331 5336 5341 5346 5351 5356 5362 5367 5372 5378 5384 5390 5397 5404 5410 5416 5423 5430 5436 5442 5449 5455 5461 5467 5473 5479 5485 5492 5498 5505 5510 5516 5522 5528
5457 5453 5449 5445 5440 5436 5432 5427 5422 5418 5412 5407 5401 5395 5390 5385 5381 5378 5376 5374 5370 5366 5362 5358 5355 5354 5353 5351 5349 5347 5346 5343 5340 5335 5331 5327 5323 5322 5323 5323 5320 5315 5312 5311 5312 5312 5311 5310 5311 5314 5317 5321 5325 5330 5335 5340 5345 5350 5356 5361 5367 5372 5378 5384 5391 5398 5404 5410 5417 5424 5430 5436 5443 5450 5456 5461 5467 5473 5479 5486 5493 5499 5505 5511 5517 5523
5452 5448 5443 5439 5434 5430 5425 5421 5416 5411 5406 5401 5395 5389 5384 5379 5375 5372 5370 5368 5365 5360 5357 5354 5351 5348 5346 5345 5343 5341 5340 5337 5333 5329 5324 5320 5316 5315 5316 5316 5313 5309 5306 5305 5305 5305 5305 5305 5305 5308 5311 5315 5320 5325 5329 5334 5339 5345 5350 5356 5362 5368 5373 5380 5386 5393 5399 5405 5412 5419 5425 5431 5437 5444 5450 5456 5462 5468 5474 5480 5487 5494 5500 5506 5511 5517
5447 5442 5438 5433 5429 5424 5419 5415 5410 5405 5401 5395 5390 5384 5379 5374 5370 5367 5364 5362 5359 5355 5351 5349 5346 5344 5340 5338 5336 5335 5334 5331 5328 5323 5317 5313 5310 5309 5310 5309 5306 5303 5301 5299 5298 5298 5299 5299 5300 5303 5306 5310 5315 5320 5324 5329 5334 5340 5345 5351 5357 5363 5369 5375 5382 5388 5394 5400 5406 5413 5419 5426 5432 5439 5445 5451 5457 5463 5469 5475 5482 5489 5495 5500 5505 5511
5442 5437 5433 5428 5423 5418 5414 5409 5404 5400 5395 5390 5385 5379 5374 5369 5365 5362 5359 5357 5354 5350 5346 5344 5341 5339 5335 5332 5329 5327 5327 5326 5322 5317 5311 5306 5303 5302 5304 5302 5299 5297 5296 5294 5293 5292 5292 5294 5296 5298 5301 5306 5310 5315 5319 5324 5329 5335 5340 5346 5352 5358 5364 5371 5377 5383 5389 5395 5400 5407 5413 5420 5427 5433 5440 5445 5452 5458 5464 5470 5477 5483 5489 5495 5500 5506
5437 5432 5428 5423 5418 5413 5408 5403 5398 5394 5389 5384 5379 5374 5369 5365 5361 5358 5355 5352 5349 5345 5341 5339 5336 5334 5331 5327 5323 5320 5319 5319 5316 5311 5305 5300 5298 5297 5298 5295 5293 5291 5291 5290 5289 5287 5287 5289 5291 5294 5297 5301 5306 5310 5315 5320 5325 5330 5335 5341 5347 5354 5360 5366 5372 5377 5383 5389 5395 5401 5408 5415 5421 5427 5434 5440 5446 5453 5459 5465 5471 5478 5483 5489 5495 5501
5432 5427 5422 5417 5412 5407 5402 5397 5392 5387 5382 5378 5373 5369 5365 5360 5357 5354 5350 5347 5344 5341 5337 5334 5331 5328 5325 5322 5318 5315 5313 5312 5309 5305 5300 5295 5292 5291 5292 5290 5287 5286 5285 5284 5283 5283 5282 5284 5287 5290 5293 5297 5301 5306 5311 5315 5320 5325 5331 5337 5343 5349 5355 5361 5367 5373 5378 5384 5390 5397 5403 5410 5416 5422 5428 5435 5441 5447 5454 5460 5466 5472 5478 5485 5490 5496
5426 5421 5416 5411 5406 5401 5396 5391 5386 5381 5376 5371 5367 5363 5360 5356 5353 5350 5346 5343 5340 5337 5333 5329 5325 5322 5319 5316 5313 5310 5308 5306 5303 5299 5294 5290 5287 5285 5285 5284 5282 5280 5279 5278 5277 5277 5278 5280 5283 5286 5289 5293 5297 5302 5307 5312 5317 5322 5327 5333 5339 5345 5352 5357 5363 5368 5374 5380 5386 5392 5399 5405 5411 5418 5424 5430 5437 5442 5449 5455 5461 5467 5474 5480 5486 5492
5420 5415 5410 5405 5400 5395 5390 5385 5380 5375 5370 5365 5361 5358 5355 5351 5348 5345 5342 5338 5335 5332 5329 5325 5321 5316 5313 5310 5307 5304 5303 5301 5297 5293 5289 5285 5282 5280 5280 5279 5277 5275 5274 5273 5272 5272 5273 5275 5279 5282 5285 5289 5294 5299 5304 5309 5313 5319 5324 5329 5335 5341 5348 5353 5359 5364 5370 5376 5383 5389 5395 5401 5407 5414 5420 5427 5433 5438 5444 5450 5456 5463 5469 5475 5482 5489
5415 5410 5405 5399 5394 5389 5384 5379 5374 5369 5364 5360 5357 5353 5350 5347 5344 5340 5337 5334 5330 5327 5324 5321 5317 5313 5308 5304 5301 5299 5297 5295 5292 5288 5284 5281 5278 5276 5274 5273 5272 5271 5270 5269 5268 5269 5270 5271 5275 5278 5281 5286 5290 5295 5300 5305 5310 5315 5320 5326 5331 5338 5344 5349 5355 5360 5367 5373 5380 5386 5392 5398 5404 5410 5416 5423 5429 5435 5440 5446 5453 5459 5465 5471 5478 5484
5408 5403 5398 5393 5387 5382 5377 5372 5368 5363 5359 5355 5352 5349 5346 5343 5340 5336 5333 5329 5326 5322 5319 5315 5312 5308 5304 5300 5297 5294 5292 5290 5287 5283 5279 5276 5274 5272 5269 5268 5267 5267 5266 5265 5264 5265 5266 5268 5270 5274 5278 5283 5287 5292 5297 5302 5307 5312 5317 5323 5329 5335 5340 5346 5351 5357 5364 5370 5377 5383 5389 5395 5401 5407 5413 5420 5425 5431 5437 5443 5449 5455 5461 5468 5474 5480
5401 5397 5392 5386 5381 5376 5371 5366 5362 5358 5354 5351 5348 5345 5342 5339 5335 5332 5328 5325 5321 5318 5314 5310 5307 5303 5300 5296 5293 5290 5287 5285 5282 5279 5275 5271 5269 5267 5265 5263 5262 5263 5262 5261 5261 5261 5263 5265 5267 5270 5275 5279 5284 5290 5295 5300 5304 5309 5315 5320 5326 5332 5337 5342 5348 5355 5362 5368 5374 5380 5386 5392 5399 5405 5411 5417 5423 5429 5435 5441 5446 5452 5457 5463 5470 5476
5395 5390 5385 5380 5375 5370 5365 5360 5357 5353 5350 5346 5344 5340 5337 5334 5330 5327 5323 5320 5317 5313 5310 5306 5302 5299 5295 5292 5288 5285 5282 5280 5277 5274 5270 5267 5264 5262 5261 5259 5258 5258 5257 5256 5257 5258 5260 5262 5265 5268 5272 5277 5282 5287 5292 5296 5301 5306 5311 5317 5323 5329 5335 5340 5346 5352 5358 5365 5371 5377 5383 5390 5396 5402 5409 5414 5420 5426 5432 5437 5442 5448 5455 5460 5465 5471
5388 5384 5379 5374 5369 5364 5359 5355 5351 5348 5345 5342 5339 5336 5333 5329 5326 5323 5319 5316 5312 5309 5306 5302 5299 5295 5292 5288 5285 5281 5278 5275 5272 5269 5266 5263 5260 5258 5257 5255 5254 5253 5253 5252 5252 5254 5255 5258 5262 5265 5270 5275 5280 5285 5289 5294 5298 5303 5309 5315 5321 5327 5333 5339 5344 5350 5356 5362 5369 5376 5382 5388 5394 5400 5406 5411 5417 5422 5427 5432 5438 5444 5450 5457 5462 5467
5382 5377 5373 5368 5363 5359 5354 5350 5346 5343 5340 5337 5335 5332 5329 5325 5322 5318 5315 5312 5309 5305 5302 5298 5295 5292 5289 5285 5282 5278 5275 5271 5268 5265 5261 5259 5256 5254 5253 5251 5250 5250 5249 5248 5249 5250 5252 5255 5258 5263 5268 5272 5277 5282 5286 5291 5296 5302 5308 5314 5319 5325 5330 5336 5342 5348 5354 5361 5368 5375 5380 5386 5392 5398 5404 5408 5413 5417 5423 5428 5434 5439 5445 5451 5455 5460
5376 5371 5367 5363 5358 5354 5350 5346 5342 5339 5336 5334 5331 5328 5325 5321 5318 5315 5311 5309 5305 5302 5298 5295 5291 5288 5285 5282 5279 5275 5271 5267 5264 5260 5257 5255 5253 5250 5249 5248 5246 5246 5245 5245 5245 5247 5249 5252 5255 5260 5265 5270 5275 5279 5284 5289 5294 5300 5305 5310 5315 5321 5327 5334 5340 5346 5353 5360 5367 5374 5379 5385 5391 5397 5402 5406 5410 5414 5420 5425 5430 5436 5441 5445 5448 5452
5371 5366 5362 5358 5353 5349 5345 5342 5339 5335 5333 5330 5327 5325 5321 5318 5314 5311 5308 5305 5301 5299 5295 5291 5288 5285 5282 5279 5275 5271 5267 5264 5260 5257 5254 5251 5249 5247 5245 5244 5243 5242 5241 5241 5242 5244 5246 5250 5254 5258 5264 5269 5273 5278 5282 5287 5293 5298 5303 5308 5314 5321 5327 5333 5339 5346 5353 5360 5367 5374 5379 5385 5391 5397 5400 5404 5408 5412 5418 5423 5428 5433 5438 5442 5445 5448
5366 5362 5357 5353 5349 5345 5341 5338 5335 5332 5330 5327 5324 5321 5318 5314 5311 5307 5304 5301 5298 5295 5292 5289 5285 5282 5279 5275 5272 5269 5265 5260 5257 5254 5251 5248 5246 5244 5242 5241 5240 5239 5239 5239 5240 5242 5245 5248 5252 5257 5262 5267 5271 5276 5280 5286 5291 5296 5301 5308 5314 5320 5325 5331 5338 5345 5352 5360 5368 5374 5378 5385 5390 5395 5398 5402 5406 5410 5415 5422 5427 5431 5435 5438 5441 5446
5361 5357 5352 5348 5344 5340 5337 5335 5332 5329 5326 5323 5320 5318 5314 5311 5308 5304 5301 5297 5295 5292 5289 5285 5282 5279 5276 5273 5269 5265 5262 5258 5254 5251 5248 5245 5243 5241 5240 5238 5237 5236 5236 5236 5238 5240 5243 5247 5251 5256 5261 5265 5270 5274 5280 5285 5290 5295 5300 5306 5312 5317 5323 5330 5337 5344 5352 5360 5367 5372 5377 5383 5389 5392 5395 5401 5405 5408 5413 5418 5424 5428 5433 5436 5439 5444
5356 5352 5348 5344 5340 5337 5334 5331 5328 5326 5323 5320 5317 5314 5311 5308 5305 5301 5298 5294 5291 5289 5286 5283 5280 5276 5273 5270 5266 5263 5259 5256 5252 5249 5245 5243 5240 5239 5237 5236 5235 5234 5234 5235 5236 5239 5241 5245 5250 5255 5260 5264 5268 5273 5278 5283 5289 5294 5300 5305 5311 5317 5324 5331 5338 5345 5351 5358 5365 5371 5376 5381 5385 5389 5393 5398 5402 5406 5410 5415 5420 5425 5430 5434 5438 5442
5352 5348 5344 5340 5337 5333 5330 5328 5325 5322 5320 5317 5314 5311 5308 5305 5302 5299 5296 5292 5289 5286 5283 5281 5278 5274 5270 5267 5264 5260 5257 5253 5250 5247 5244 5241 5239 5237 5235 5234 5233 5232 5232 5233 5235 5237 5240 5245 5249 5253 5258 5262 5267 5272 5277 5282 5288 5293 5299 5305 5311 5318 5325 5332 5338 5345 5350 5357 5364 5370 5374 5378 5381 5385 5390 5395 5399 5402 5407 5412 5417 5422 5427 5431 5435 5439
5348 5344 5340 5336 5333 5330 5328 5325 5322 5320 5317 5314 5311 5309 5306 5303 5299 5296 5293 5290 5287 5284 5281 5278 5275 5272 5269 5265 5262 5258 5255 5251 5248 5245 5242 5239 5237 5235 5234 5232 5231 5231 5231 5232 5234 5236 5240 5244 5248 5252 5256 5261 5266 5272 5277 5283 5288 5293 5299 5305 5311 5318 5324 5330 5337 5344 5350 5356 5363 5368 5372 5375 5378 5382 5387 5392 5396 5400 5405 5410 5415 5420 5424 5429 5433 5438
5345 5340 5337 5333 5330 5327 5325 5322 5320 5317 5314 5311 5309 5306 5304 5300 5297 5293 5290 5287 5285 5282 5279 5276 5273 5270 5267 5264 5260 5257 5253 5250 5246 5243 5240 5238 5235 5234 5233 5231 5231 5230 5230 5232 5234 5236 5240 5243 5247 5251 5256 5261 5266 5272 5277 5283 5288 5293 5299 5305 5311 5317 5324 5330 5337 5343 5350 5356 5361 5366 5370 5372 5375 5380 5386 5391 5394 5398 5402 5407 5413 5417 5422 5427 5432 5438
5341 5337 5333 5330 5327 5324 5322 5319 5317 5314 5311 5308 5305 5303 5301 5298 5295 5292 5288 5285 5283 5280 5278 5275 5272 5269 5266 5263 5259 5256 5252 5249 5245 5242 5239 5236 5235 5233 5232 5231 5231 5231 5231 5232 5234 5237 5240 5244 5248 5252 5257 5262 5267 5272 5278 5282 5288 5293 5299 5305 5311 5317 5324 5330 5336 5342 5349 5354 5360 5364 5367 5371 5375 5380 5385 5389 5392 5395 5400 5405 5410 5415 5420 5425 5431 5436
5338 5334 5331 5327 5325 5322 5319 5316 5314 5311 5308 5305 5303 5300 5298 5296 5293 5290 5287 5284 5281 5279 5276 5273 5271 5268 5265 5262 5259 5255 5251 5248 5244 5241 5238 5236 5234 5232 5231 5231 5231 5231 5232 5233 5235 5238 5242 5245 5249 5254 5258 5263 5268 5273 5278 5283 5288 5294 5300 5305 5311 5318 5324 5330 5335 5341 5347 5352 5357 5362 5366 5370 5375 5380 5385 5387 5390 5394 5399 5403 5408 5413 5418 5423 5429 5435
5335 5332 5328 5325 5322 5320 5317 5314 5311 5309 5306 5303 5300 5298 5295 5293 5291 5288 5285 5283 5280 5278 5275 5273 5270 5267 5264 5261 5258 5254 5251 5247 5244 5240 5238 5235 5234 5232 5231 5231 5231 5232 5233 5235 5237 5240 5243 5247 5251 5256 5261 5265 5270 5275 5280 5285 5290 5295 5301 5307 5313 5319 5325 5330 5335 5341 5345 5350 5355 5360 5365 5369 5375 5380 5383 5385 5388 5392 5397 5401 5405 5410 5417 5422 5428 5433